Retour au catalogue

STARLINK-31157

ActifCommunicationsVLEO
NORAD 58735·PAYLOAD·🇺🇸 United States

Lancé Jan 7, 2024 depuis Cape Canaveral Space Force Station

Loading…

Prochains Passages (prochaines 24 heures)

TLE

FraisSource: CelesTrak SupGP

Époque: Sep 14, 2026, 20:49 UTC

1 58735C 24005H   26257.86784722  .00032216  00000+0  11671-2 0  2573
2 58735  43.0004 231.1253 0001268 255.8225 292.9270 15.27554186    10

Suivez STARLINK-31157 en temps réel avec AllMySat

Download on the App Store